TimeCST,TemperatureF,Dew PointF,Humidity,Sea Level PressureIn,VisibilityMPH,Wind Direction,Wind SpeedMPH,Gust SpeedMPH,PrecipitationIn,Events,Conditions,WindDirDegrees,DateUTC
12:53 AM,55.9,43.0,62,30.08,10.0,South,10.4,-,N/A,,Clear,180,2012-11-18 06:53:00
1:53 AM,54.0,43.0,66,30.06,10.0,South,10.4,-,N/A,,Partly Cloudy,170,2012-11-18 07:53:00
2:53 AM,53.1,43.0,69,30.05,10.0,South,6.9,-,N/A,,Clear,180,2012-11-18 08:53:00
3:53 AM,53.1,43.0,69,30.05,10.0,South,6.9,-,N/A,,Clear,180,2012-11-18 09:53:00
4:53 AM,53.1,44.1,71,30.05,10.0,South,6.9,-,N/A,,Clear,170,2012-11-18 10:53:00
5:53 AM,53.1,44.1,71,30.05,10.0,South,10.4,-,N/A,,Clear,180,2012-11-18 11:53:00
6:53 AM,53.1,45.0,74,30.06,10.0,South,6.9,-,N/A,,Clear,170,2012-11-18 12:53:00
7:53 AM,53.1,45.0,74,30.07,10.0,South,10.4,-,N/A,,Partly Cloudy,170,2012-11-18 13:53:00
8:53 AM,55.0,46.0,72,30.07,10.0,South,10.4,-,N/A,,Mostly Cloudy,170,2012-11-18 14:53:00
9:53 AM,55.0,48.0,77,30.12,10.0,South,11.5,-,0.00,,Overcast,190,2012-11-18 15:53:00
10:53 AM,55.9,48.9,77,30.11,10.0,South,8.1,-,0.00,,Mostly Cloudy,190,2012-11-18 16:53:00
11:53 AM,60.1,50.0,69,30.11,10.0,SSW,12.7,-,0.00,,Overcast,210,2012-11-18 17:53:00
12:53 PM,63.0,48.9,60,30.07,10.0,South,9.2,-,N/A,,Overcast,180,2012-11-18 18:53:00
1:53 PM,64.0,50.0,60,30.06,10.0,WSW,6.9,-,N/A,,Overcast,250,2012-11-18 19:53:00
2:53 PM,64.0,48.9,58,30.06,10.0,Variable,3.5,-,N/A,,Mostly Cloudy,0,2012-11-18 20:53:00
3:53 PM,64.9,48.9,56,30.07,10.0,Calm,Calm,-,N/A,,Mostly Cloudy,0,2012-11-18 21:53:00
4:53 PM,64.9,48.9,56,30.07,10.0,SSE,5.8,-,N/A,,Clear,150,2012-11-18 22:53:00
5:53 PM,63.0,48.9,60,30.08,10.0,South,4.6,-,N/A,,Partly Cloudy,180,2012-11-18 23:53:00
6:53 PM,61.0,48.9,64,30.10,10.0,South,10.4,-,N/A,,Clear,170,2012-11-19 00:53:00
7:53 PM,59.0,48.9,69,30.11,10.0,South,12.7,-,N/A,,Mostly Cloudy,170,2012-11-19 01:53:00
8:53 PM,57.9,48.9,72,30.11,10.0,South,12.7,-,N/A,,Clear,180,2012-11-19 02:53:00
9:53 PM,57.0,48.9,74,30.12,10.0,South,15.0,-,N/A,,Clear,170,2012-11-19 03:53:00
10:53 PM,55.9,50.0,80,30.12,10.0,South,10.4,-,N/A,,Clear,190,2012-11-19 04:53:00
11:53 PM,55.0,50.0,83,30.11,10.0,SSW,8.1,-,N/A,,Clear,200,2012-11-19 05:53:00